CZ-4C DEB, 43265

Orbit data source: Space-Track

CZ-4C DEB, 43265 is space debris in SSO originally from a launch on Sat, 31 Mar 2018 UTC launched from the Taiyaun Space Center, China (TSC). Debris objects in space refer to the collection of defunct objects orbiting the Earth. Examples of debris include non-operational satellites, rocket bodies, and fragments generated from explosions, collisions, or faulty payload assembly.

Loading next visibility...
Identifier
43265, 2018-031G
Orbit
SSO
Country
Flag of CNCN / PRC
Related business
Manufacturer
Unknown
Mission
Spacecraft
Bus & Motor
Unknown
Mass
Unknown
Launch date (UTC)
2018-03-31 (8 years ago)
Launch vehicle
Unknown
Launch site
Taiyaun Space Center, China (TSC)
Object type
Payload
Rocket body
Debris
Shape & HBR
Unknown shape, 2.1 m
Radar Cross Section
Large (>1 m²)

Expand to show TLE details & history
Last TLE update: 1 day ago

TLE from 1 day ago
0 CZ-4C DEB
1 43265U 18031G   25348.81597655  .00006315  00000-0  50885-3 0  9995
2 43265  97.7904  67.2600 0005920 143.5439 216.6188 15.00263627416762
Epoch: 2025-12-14T19:35Z
TLE epoch observation values (Epoch: 2025-12-14T19:35:00.373Z)
Latitude
-0.00009°
Longitude
49.78499°
Altitude
572.436 km
Speed
7.573 km/s
True Right ascension
04h 29m 02s
True Declination
0° 00' 00"
Sunlit
Object was in full shadow at epoch
Visualization orbit readout
Latitude
Unknown
Longitude
Unknown
Altitude
Unknown
Speed
Unknown
Apparent Right ascension
Unknown
Apparent Declination
Unknown
Sunlit
N/A
Visualization observer readout
Local Sidereal Time
19:09:57
Azimuth
Unknown
Elevation
Unknown
Doppler factor
Unknown
Orbital elements
Apogee altitude
567.201 km
Perigee altitude
558.982 km
Semi-major axis
6,941.229 km
Eccentricity
0.00059
Inclination
97.7904°
RAAN
67.26°
Arg. of periapsis
143.5439°
True anomaly
216.57836°
Mean anomaly
216.6188°
Eccentric anomaly
216.59858°
Mean motion
3.75309 °/min
Orbital period
95.92 mins
BSTAR
0.00050885
Loading maneuver chart data...
Computing Atmospheric mass density...
Loading historical data...
Loading historical data...
Loading historical data...
Loading historical data...
Loading historical data...
Loading historical data...
Loading historical data...

Documentation

Showing up to 5 results
|